Regional Weather Roundup
Issued by NWS Upton, NY

Current Version | Previous Version | Text Only | Print | Product List | Glossary Off
Versions: 1 2 3 4 5 6 7 8 9 10 11 12 13 14 15 16 17 18 19 20 21 22 23 24 25 26 27 28 29 30 31 32 33 34 35 36 37 38 39 40 41 42 43 44 45 46 47 48 49 50

378
ASUS41 KOKX 090404
RWROKX

REGIONAL WEATHER ROUNDUP
NATIONAL WEATHER SERVICE NEW YORK NY
1100 PM EST MON FEB 08 2016

NOTE: "FAIR" INDICATES FEW OR NO CLOUDS BELOW 12,000 FEET WITH NO
SIGNIFICANT WEATHER AND/OR OBSTRUCTIONS TO VISIBILITY.

NYZ071-072-176-178-NJZ106-104-090500-
NEW YORK CITY METRO AREA


CITY           SKY/WX    TMP DP  RH WIND       PRES   REMARKS
CENTRAL PARK   CLOUDY    29  22  75 NE8       29.79F WCI  21
LAGUARDIA APRT FRZ DRZL  29  24  82 NE7       29.78F WCI  22
KENNEDY INTL   FLURRIES  29  24  82 E9        29.80F WCI  20
NEWARK/LIBERTY LGT SNOW  30  25  81 NE7       29.77F WCI  23
BRNX BOT. GARD   N/A     28  23  80 NE2       29.79F
TETERBORO      FLURRIES  29  23  78 E5        29.77F WCI  24
$$

NYZ177-179-078>081-090500-
LONG ISLAND NEW YORK

CITY           SKY/WX    TMP DP  RH WIND       PRES   REMARKS
FARMINGDALE    CLOUDY    27  23  85 NE6       29.78F WCI  20
ISLIP          FLURRIES  27  22  81 NE7       29.77F WCI  19
SHIRLEY        CLOUDY    26  21  81 CALM      29.79F
RIVERHEAD        N/A     27  21  80 E2        29.75F
WESTHAMPTON      N/A    N/A N/A N/A MISG      29.79F
EAST HAMPTON   CLOUDY    24  19  81 N7        29.78F WCI  16
MONTAUK POINT    N/A     25  19  78 N9G17     29.79S WCI  15
$$

NYZ052-065-067-090500-
HUDSON VALLEY

CITY           SKY/WX    TMP DP  RH WIND       PRES   REMARKS
WHITE PLAINS   CLOUDY    25  21  85 NE3       29.76F
NEWBURGH       LGT SNOW  25  23  93 E6        29.77F WCI  18
MONTGOMERY     CLOUDY    26  22  84 NE6       29.76F WCI  19
POUGHKEEPSIE   LGT SNOW  27  22  81 NE5       29.78F WCI  22
ALBANY         LGT SNOW  25  21  85 CALM      29.79F FOG
$$

NJZ001-105-106-008-010-013-015-019>022-104-090500-
NEW JERSEY

CITY           SKY/WX    TMP DP  RH WIND       PRES   REMARKS
NEWARK/LIBERTY LGT SNOW  30  25  81 NE7       29.77F WCI  23
TETERBORO      FLURRIES  29  23  78 E5        29.77F WCI  24
CALDWELL       CLOUDY    28  22  78 E10       29.77F WCI  19
MORRISTOWN     CLOUDY    30  23  74 NE3       29.77F
SOMERVILLE     CLOUDY    31  23  72 VRB7      29.74F WCI  24
SUSSEX         CLOUDY    27  22  81 NE8       29.73F WCI  19
ANDOVER          N/A     28  23  81 VRB3      29.72F
TRENTON        LGT SNOW  30  27  88 E7        29.74F FOG     WCI  23
MILLVILLE      LGT SNOW  33  31  92 E6        29.73F FOG     WCI  28
ATLANTIC CITY  LGT SNOW  33  31  92 E6        29.73F FOG     WCI  28
WRIGHTSTOWN    CLOUDY    30  30  99 E5        29.72F WCI  26
TOMS RIVER     CLOUDY    30  27  86 E5        29.75F WCI  25
BELMAR         CLOUDY    30  21  69 E9        29.74F WCI  22
$$

PAZ047>061-062-071-090500-
EASTERN PENNSYLVANIA

CITY           SKY/WX    TMP DP  RH WIND       PRES   REMARKS
PHILADELPHIA   LGT SNOW  32  28  85 E8        29.75F FOG     WCI  25
ALLENTOWN      LGT SNOW  32  26  78 SE5       29.73R WCI  27
SCRANTON       CLOUDY    32  17  54 VRB5      29.66R WCI  27
$$

CTZ002-004>006-009-010-012-RIZ004-006-007-MAZ004-011-015-090500-
SOUTHERN NEW ENGLAND
 IN CT

CITY           SKY/WX    TMP DP  RH WIND       PRES   REMARKS
BRADLEY INTL   FLURRIES  23  19  85 N6        29.79S WCI  16
HARTFORD       FLURRIES  24  20  84 N8        29.81S WCI  15
DANBURY        LGT SNOW  24  17  74 E7        29.78F WCI  16
WTRBRY/OXFORD  CLOUDY    21  10  63 NE8       29.76F WCI  12
BRIDGEPORT     FLURRIES  26  20  77 N8        29.79F WCI  18
MERIDEN        FLURRIES  25  18  74 N7        29.80F WCI  17
NEW HAVEN      CLOUDY    24  20  84 N8        29.79F WCI  15
CHESTER        CLOUDY    25  19  80 NE6       29.77F WCI  18
GROTON         CLOUDY    23  17  78 N14       29.78F WCI  11
WILLIMANTIC    CLOUDY    23  15  71 N6        29.79F WCI  16

 IN RI

CITY           SKY/WX    TMP DP  RH WIND       PRES   REMARKS
PROVIDENCE     LGT SNOW  21  16  81 N13       29.79S WCI   9
BLOCK ISLAND   CLOUDY    23  19  86 N13G21    29.75S WCI  11
WESTERLY       CLOUDY    23  16  74 N8        29.78S WCI  14

 IN MA

CITY           SKY/WX    TMP DP  RH WIND       PRES   REMARKS
BOSTON         LGT SNOW  21  16  81 N12       29.80S WCI   9
WORCESTER      LGT SNOW  17  13  84 NE9       29.74S VSB 1   WCI   6
WESTFIELD      CLOUDY    22  19  89 CALM      29.79S
PROVINCETOWN   LGT SNOW  28  26  92 N22       29.74R FOG     WCI  14
NANTUCKET      FLURRIES  32  28  85 N18G28    29.69S WCI  20
$$

ANZ330-335-338-340-345-350-353-355-090500-
COASTAL MARINE OBSERVATIONS


STATION/POSITION TIME  SKY/WX   TEMP    WIND        PRES    VSBY  WAVE
                                AIR SEA DIR/SP/G                  HT/PER
                 (UTC)          (F)     (DEG/KT/KT) (MB)    (MI)  (FT/S)
NY HARB ENTRANCE 0250            30 43   60/ 10/ 14 1008.6          9/13
4S FIRE IS       NOT AVBL
20S FIRE ISLAND  0250            29 45   30/ 10/ 14 1008.6         10/13
GREAT SOUTH BAY  NOT AVBL
23SW MTP         0350            28 47   20/ 16/ 17 1007.7         10/13
HUDSON CANYON    0250            35 51              1007.5         18/14
KINGS POINT      0300            27 38   90/  4/  8 1008.8
EXECUTION ROCKS  NOT AVBL
CENTRAL LI SOUND 0300            26      30/ 10/ 12   N/A           1/ 2
EASTERN LI SOUND 0300            25 41   20/ 16/ 19   N/A
ROBBINS REEF     0300            29      60/  8/ 11 1008.2
$$


>>>>>>>>>>>>>>>>>>>>>>>>>>>> KEY <<<<<<<<<<<<<<<<<<<<<<<<<<<
>                                                          <
>     SKY/WX - SKY CONDITION/PRESENT WEATHER               <
>     TMP    - TEMPERATURE IN FAHRENHEIT                   <
>     DP     - DEWPOINT IN FAHRENHEIT                      <
>     RH     - RELATIVE HUMIDITY IN PERCENT                <
>     WIND   - DIRECTION AND SPEED IN MPH                  <
>     PRES   - MEAN SEA LEVEL PRESSURE IN INCHES OF HG     <
>     WCI    - WIND CHILL INDEX                            <
>     VSB    - VISIBILITY IN MILES                         <
>     HX     - HEAT INDEX                                  <
>     TC     - TEMPERATURE IN CELSIUS                      <
>     VRB    - VARIABLE WIND DIRECTION                     <
>                                                          <
>>>>>>>>>>>>>>>>>>>>>>>>>>>> KEY <<<<<<<<<<<<<<<<<<<<<<<<<<<






USA.gov is the U.S. government's official web portal to all federal, state and local government web resources and services.